• In Hungary
  • List of Countries
  • For 7 days
  • Water Temperature
  • Satellite Maps
  • Weather Map
  • News
  • Weather Widgets
  • user-avatar
    Login

    Hourly Weather Izvarino

    Today, 22 July, Sunday

    Time Temperature Precipitation Wind Pressure Humidity
    00:00 +19°C° 0 mm 4 mps 736 mmHg 95%
    01:00 +19°C° 0 mm 4 mps 736 mmHg 96%
    02:00 +18°C° 0 mm 4 mps 736 mmHg 97%
    03:00 +18°C° 0 mm 4 mps 736 mmHg 97%
    04:00 +18°C° 0 mm 4 mps 736 mmHg 97%
    05:00 +18°C° 0 mm 4 mps 736 mmHg 96%
    06:00 +19°C° 0 mm 4 mps 737 mmHg 96%
    07:00 +19°C° 0 mm 4 mps 737 mmHg 95%
    08:00 +19°C° 0 mm 4 mps 737 mmHg 94%
    09:00 +19°C° 0 mm 4 mps 737 mmHg 93%
    10:00 +19°C° 0 mm 4 mps 737 mmHg 92%
    11:00 +20°C° 0 mm 5 mps 737 mmHg 90%
    12:00 +20°C° 0 mm 5 mps 737 mmHg 89%
    13:00 +21°C° 0.1 mm 5 mps 737 mmHg 87%
    14:00 +21°C° 0.1 mm 5 mps 737 mmHg 85%
    15:00 +22°C° 0.1 mm 5 mps 737 mmHg 83%
    16:00 +22°C° 0.2 mm 5 mps 737 mmHg 83%
    17:00 +22°C° 0.2 mm 5 mps 737 mmHg 84%
    18:00 +21°C° 0.2 mm 5 mps 737 mmHg 84%
    19:00 +21°C° 0 mm 5 mps 737 mmHg 86%
    20:00 +20°C° 0 mm 5 mps 737 mmHg 89%
    21:00 +19°C° 0 mm 4 mps 737 mmHg 91%
    22:00 +18°C° 0 mm 4 mps 737 mmHg 91%
    23:00 +18°C° 0 mm 4 mps 737 mmHg 92%

    Tomorrow, 23 July, Monday

    Time Temperature Precipitation Wind Pressure Humidity
    00:00 +18°C° 0 mm 4 mps 737 mmHg 92%
    01:00 +17°C° 0 mm 4 mps 737 mmHg 93%
    02:00 +17°C° 0 mm 4 mps 737 mmHg 94%
    03:00 +17°C° 0 mm 4 mps 737 mmHg 95%
    04:00 +16°C° 0.1 mm 5 mps 737 mmHg 95%
    05:00 +16°C° 0.1 mm 5 mps 737 mmHg 94%
    06:00 +16°C° 0.1 mm 5 mps 737 mmHg 93%
    07:00 +16°C° 0.1 mm 5 mps 737 mmHg 93%
    08:00 +16°C° 0.1 mm 5 mps 737 mmHg 93%
    09:00 +16°C° 0.1 mm 5 mps 737 mmHg 93%
    10:00 +16°C° 0.1 mm 5 mps 738 mmHg 92%
    11:00 +17°C° 0.1 mm 5 mps 738 mmHg 90%
    12:00 +17°C° 0.1 mm 5 mps 738 mmHg 89%
    13:00 +17°C° 0.1 mm 5 mps 738 mmHg 88%
    14:00 +17°C° 0.1 mm 5 mps 738 mmHg 88%
    15:00 +19°C° 0.1 mm 5 mps 737 mmHg 87%
    16:00 +19°C° 0 mm 5 mps 737 mmHg 87%
    17:00 +19°C° 0 mm 5 mps 737 mmHg 88%
    18:00 +19°C° 0 mm 5 mps 737 mmHg 88%
    19:00 +17°C° 0 mm 5 mps 737 mmHg 89%
    20:00 +18°C° 0 mm 4 mps 737 mmHg 90%
    21:00 +18°C° 0 mm 4 mps 738 mmHg 91%
    22:00 +18°C° 0.1 mm 4 mps 738 mmHg 92%
    23:00 +18°C° 0.1 mm 4 mps 738 mmHg 94%

    Day after tomorrow, 24 July, Tuesday

    Time Temperature Precipitation Wind Pressure Humidity
    00:00 +18°C° 0.1 mm 4 mps 738 mmHg 95%
    01:00 +18°C° 0 mm 4 mps 738 mmHg 95%
    02:00 +18°C° 0 mm 4 mps 738 mmHg 95%
    03:00 +18°C° 0 mm 4 mps 738 mmHg 96%
    04:00 +18°C° 0.1 mm 4 mps 738 mmHg 96%
    05:00 +18°C° 0.1 mm 4 mps 738 mmHg 96%
    06:00 +18°C° 0.1 mm 4 mps 738 mmHg 95%
    07:00 +19°C° 0.3 mm 4 mps 738 mmHg 95%
    08:00 +19°C° 0.3 mm 4 mps 738 mmHg 94%
    09:00 +19°C° 0.3 mm 4 mps 738 mmHg 93%
    10:00 +20°C° 0.1 mm 4 mps 739 mmHg 90%
    11:00 +21°C° 0.1 mm 4 mps 739 mmHg 88%
    12:00 +22°C° 0.1 mm 4 mps 739 mmHg 85%
    13:00 +25°C° 0.2 mm 4 mps 739 mmHg 81%
    14:00 +26°C° 0.2 mm 4 mps 739 mmHg 77%
    15:00 +27°C° 0.2 mm 4 mps 739 mmHg 73%
    16:00 +26°C° 0.5 mm 4 mps 739 mmHg 77%
    17:00 +26°C° 0.5 mm 4 mps 740 mmHg 81%
    18:00 +25°C° 0.5 mm 4 mps 740 mmHg 84%
    19:00 +23°C° 0.5 mm 4 mps 740 mmHg 87%
    20:00 +22°C° 0.5 mm 4 mps 740 mmHg 89%
    21:00 +21°C° 0.5 mm 4 mps 741 mmHg 91%
    22:00 +20°C° 0.5 mm 3 mps 741 mmHg 93%
    23:00 +20°C° 0.5 mm 3 mps 741 mmHg 94%

    25 July, Wednesday

    Time Temperature Precipitation Wind Pressure Humidity
    00:00 +20°C° 0.5 mm 3 mps 741 mmHg 96%
    01:00 +19°C° 0.2 mm 3 mps 741 mmHg 96%
    02:00 +19°C° 0.2 mm 3 mps 741 mmHg 96%
    03:00 +18°C° 0.2 mm 3 mps 741 mmHg 96%
    04:00 +18°C° 0 mm 3 mps 741 mmHg 95%
    05:00 +18°C° 0 mm 3 mps 742 mmHg 93%
    06:00 +18°C° 0 mm 3 mps 742 mmHg 92%
    07:00 +19°C° 0 mm 4 mps 742 mmHg 88%
    08:00 +19°C° 0 mm 5 mps 742 mmHg 84%
    09:00 +20°C° 0 mm 5 mps 742 mmHg 79%
    10:00 +21°C° 0 mm 6 mps 742 mmHg 74%
    11:00 +22°C° 0 mm 6 mps 742 mmHg 69%
    12:00 +23°C° 0 mm 7 mps 742 mmHg 63%
    13:00 +24°C° 0 mm 7 mps 742 mmHg 61%
    14:00 +26°C° 0 mm 7 mps 742 mmHg 59%
    15:00 +27°C° 0 mm 7 mps 742 mmHg 57%
    16:00 +27°C° 0 mm 6 mps 742 mmHg 61%
    17:00 +27°C° 0 mm 5 mps 742 mmHg 65%
    18:00 +26°C° 0 mm 4 mps 742 mmHg 70%
    19:00 +25°C° 0 mm 4 mps 743 mmHg 72%
    20:00 +22°C° 0 mm 4 mps 743 mmHg 74%
    21:00 +21°C° 0 mm 4 mps 743 mmHg 76%
    22:00 +20°C° 0 mm 4 mps 743 mmHg 76%
    23:00 +20°C° 0 mm 4 mps 743 mmHg 77%

    26 July, Thursday

    Time Temperature Precipitation Wind Pressure Humidity
    00:00 +19°C° 0 mm 3 mps 744 mmHg 77%
    01:00 +19°C° 0 mm 3 mps 744 mmHg 76%
    02:00 +18°C° 0 mm 3 mps 744 mmHg 76%
    03:00 +18°C° 0 mm 3 mps 744 mmHg 75%
    04:00 +18°C° 0 mm 3 mps 744 mmHg 78%
    05:00 +18°C° 0 mm 4 mps 744 mmHg 80%
    06:00 +18°C° 0 mm 4 mps 745 mmHg 83%
    07:00 +19°C° 0 mm 4 mps 745 mmHg 79%
    08:00 +21°C° 0 mm 4 mps 745 mmHg 75%
    09:00 +23°C° 0 mm 4 mps 745 mmHg 71%
    10:00 +25°C° 0 mm 5 mps 745 mmHg 66%
    11:00 +27°C° 0 mm 6 mps 745 mmHg 62%
    12:00 +28°C° 0 mm 6 mps 745 mmHg 58%
    13:00 +29°C° 0 mm 6 mps 745 mmHg 57%
    14:00 +29°C° 0 mm 6 mps 745 mmHg 57%
    15:00 +29°C° 0 mm 6 mps 745 mmHg 56%
    16:00 +29°C° 0.1 mm 5 mps 745 mmHg 60%
    17:00 +29°C° 0.1 mm 4 mps 745 mmHg 65%
    18:00 +28°C° 0.1 mm 4 mps 745 mmHg 69%
    19:00 +26°C° 0.1 mm 4 mps 746 mmHg 74%
    20:00 +24°C° 0.1 mm 3 mps 746 mmHg 78%
    21:00 +22°C° 0.1 mm 3 mps 746 mmHg 82%
    22:00 +21°C° 0.1 mm 3 mps 746 mmHg 84%
    23:00 +20°C° 0.1 mm 3 mps 746 mmHg 86%

    27 July, Friday

    Time Temperature Precipitation Wind Pressure Humidity
    00:00 +20°C° 0.1 mm 3 mps 746 mmHg 88%
    01:00 +19°C° 0.2 mm 3 mps 747 mmHg 89%
    02:00 +19°C° 0.2 mm 3 mps 747 mmHg 90%
    03:00 +19°C° 0.2 mm 3 mps 747 mmHg 91%
    04:00 +19°C° 0.1 mm 4 mps 747 mmHg 91%
    05:00 +19°C° 0.1 mm 4 mps 747 mmHg 90%
    06:00 +19°C° 0.1 mm 4 mps 747 mmHg 89%
    07:00 +20°C° 0 mm 4 mps 748 mmHg 86%
    08:00 +21°C° 0 mm 4 mps 748 mmHg 84%
    09:00 +22°C° 0 mm 4 mps 748 mmHg 81%
    10:00 +25°C° 0 mm 4 mps 748 mmHg 74%
    11:00 +27°C° 0 mm 4 mps 748 mmHg 67%
    12:00 +29°C° 0 mm 4 mps 748 mmHg 60%
    13:00 +29°C° 0.1 mm 4 mps 748 mmHg 59%
    14:00 +29°C° 0.1 mm 4 mps 748 mmHg 58%
    15:00 +30°C° 0.1 mm 4 mps 748 mmHg 57%
    16:00 +29°C° 0.4 mm 3 mps 748 mmHg 61%
    17:00 +29°C° 0.4 mm 3 mps 748 mmHg 64%
    18:00 +28°C° 0.4 mm 2 mps 748 mmHg 68%
    19:00 +27°C° 0 mm 2 mps 748 mmHg 71%
    20:00 +25°C° 0 mm 2 mps 748 mmHg 74%
    21:00 +24°C° 0 mm 2 mps 748 mmHg 76%
    22:00 +23°C° 0 mm 2 mps 748 mmHg 77%
    23:00 +21°C° 0 mm 2 mps 748 mmHg 79%
    Show more